Menomonie, WI

11:45 PM CST on December 17, 2017 (GMT -0600)
Menomonie

Weather History for KLUM - December, 2012

Change the Weather History Date:

Friday, December 21, 2012

  Actual Average (KEAU) Record (KEAU)
Temperature  
Mean Temperature 14 °F -  
Max Temperature 21 °F 24 °F 53 °F (1967)
Min Temperature 6 °F 3 °F -27 °F (1989)
Degree Days  
Heating Degree Days 52    
Moisture  
Dew Point 6 °F    
Average Humidity 71    
Maximum Humidity 85    
Minimum Humidity 58    
Precipitation  
Precipitation 0.00 in - - ()
Sea Level Pressure  
Sea Level Pressure 30.14 in    
Wind  
Wind Speed 12 mph (WNW)    
Max Wind Speed 21 mph    
Max Gust Speed 24 mph    
Visibility 10 miles    
Events      
Averages and records for this station are not official NWS values.
T = Trace of Precipitation, MM = Missing Value Source: NWS Daily Summary

Daily Weather History Graph

Daily Weather History Graph

Search for Another Location

Airport or City:

Trip Planner

Search our weather history database for the weather conditions in past years. The results will help you decide how hot, cold, wet, or windy it might be!

Date:

Astronomy

Dec. 21, 2012 Rise Set
Actual Time 7:42 AM CST 4:29 PM CST
Civil Twilight 7:08 AM CST 5:03 PM CST
Nautical Twilight 6:31 AM CST 5:40 PM CST
Astronomical Twilight 5:55 AM CST 6:16 PM CST
Moon 12:26 PM CST (12/21) 1:18 AM CST (12/21)
Length of Visible Light 9h 54m
Length of Day
8h 46m
Waxing Gibbous, 65% of the Moon is Illuminated
Dec 21
Waxing Gibbous
Dec 28
Full
Jan 4
Last Quarter
Jan 11
New
Jan 18
First Quarter

Hourly Weather History & Observations

Time (CST) Temp. Windchill Dew Point Humidity Pressure Visibility Wind Dir Wind Speed Gust Speed Precip Events Conditions
12:15 AM 15.8 °F -1.5 °F 8.6 °F 73% 29.93 in 10.0 mi WNW 20.7 mph 24.2 mph N/A   Clear
12:35 AM 14.0 °F -2.5 °F 8.6 °F 79% 29.94 in 10.0 mi WNW 17.3 mph 24.2 mph N/A   Clear
1:15 AM 14.0 °F -2.5 °F 8.6 °F 79% 29.96 in 10.0 mi WNW 17.3 mph 24.2 mph N/A   Clear
1:35 AM 14.0 °F -0.8 °F 8.6 °F 79% 29.97 in 10.0 mi WNW 13.8 mph - N/A   Clear
1:55 AM 14.0 °F -0.8 °F 8.6 °F 79% 29.98 in 10.0 mi WNW 13.8 mph 20.7 mph N/A   Clear
2:15 AM 14.0 °F -2.0 °F 6.8 °F 73% 29.99 in 10.0 mi WNW 16.1 mph 20.7 mph N/A   Clear
2:35 AM 12.2 °F -4.3 °F 6.8 °F 79% 30.00 in 10.0 mi WNW 16.1 mph - N/A   Clear
2:55 AM 12.2 °F -3.1 °F 6.8 °F 79% 30.01 in 10.0 mi WNW 13.8 mph - N/A   Clear
3:15 AM 12.2 °F -3.1 °F 5.0 °F 73% 30.01 in 10.0 mi WNW 13.8 mph 20.7 mph N/A   Clear
3:35 AM 12.2 °F -1.8 °F 5.0 °F 73% 30.02 in 10.0 mi WNW 11.5 mph - N/A   Clear
3:55 AM 12.2 °F -1.8 °F 5.0 °F 73% 30.03 in 10.0 mi WNW 11.5 mph - N/A   Clear
4:15 AM 12.2 °F -2.5 °F 5.0 °F 73% 30.04 in 10.0 mi WNW 12.7 mph - N/A   Clear
4:35 AM 12.2 °F -1.8 °F 5.0 °F 73% 30.05 in 10.0 mi West 11.5 mph - N/A   Clear
4:55 AM 12.2 °F -2.5 °F 5.0 °F 73% 30.06 in 10.0 mi WNW 12.7 mph - N/A   Clear
5:15 AM 12.2 °F -1.8 °F 5.0 °F 73% 30.06 in 10.0 mi WNW 11.5 mph - N/A   Clear
5:35 AM 12.2 °F -1.0 °F 5.0 °F 73% 30.08 in 10.0 mi WNW 10.4 mph - N/A   Clear
5:55 AM 12.2 °F -2.5 °F 5.0 °F 73% 30.09 in 10.0 mi WNW 12.7 mph - N/A   Clear
6:15 AM 12.2 °F -4.3 °F 5.0 °F 73% 30.10 in 10.0 mi WNW 16.1 mph 19.6 mph N/A   Clear
6:35 AM 10.4 °F -4.8 °F 5.0 °F 79% 30.10 in 10.0 mi WNW 12.7 mph - N/A   Clear
6:55 AM 10.4 °F -3.3 °F 5.0 °F 79% 30.10 in 10.0 mi WNW 10.4 mph 17.3 mph N/A   Clear
7:15 AM 10.4 °F -4.1 °F 5.0 °F 79% 30.11 in 10.0 mi WNW 11.5 mph - N/A   Clear
7:35 AM 10.4 °F -4.1 °F 3.2 °F 73% 30.12 in 10.0 mi WNW 11.5 mph - N/A   Clear
7:55 AM 10.4 °F -2.4 °F 3.2 °F 73% 30.13 in 10.0 mi WNW 9.2 mph - N/A   Clear
8:15 AM 10.4 °F -2.4 °F 3.2 °F 73% 30.14 in 10.0 mi WNW 9.2 mph - N/A   Clear
8:35 AM 10.4 °F -3.3 °F 3.2 °F 73% 30.15 in 10.0 mi WNW 10.4 mph - N/A   Clear
8:55 AM 10.4 °F -3.3 °F 3.2 °F 73% 30.16 in 10.0 mi WNW 10.4 mph 17.3 mph N/A   Clear
9:15 AM 12.2 °F -2.5 °F 3.2 °F 67% 30.17 in 10.0 mi WNW 12.7 mph - N/A   Clear
9:35 AM 12.2 °F -1.8 °F 5.0 °F 73% 30.17 in 10.0 mi WNW 11.5 mph - N/A   Clear
9:55 AM 12.2 °F -1.0 °F 5.0 °F 73% 30.18 in 10.0 mi WNW 10.4 mph 18.4 mph N/A   Clear
10:15 AM 14.0 °F 0.5 °F 5.0 °F 67% 30.18 in 10.0 mi WNW 11.5 mph - N/A   Clear
10:35 AM 14.0 °F 0.5 °F 5.0 °F 67% 30.18 in 10.0 mi WNW 11.5 mph - N/A   Clear
10:55 AM 15.8 °F 3.4 °F 5.0 °F 62% 30.18 in 10.0 mi WNW 10.4 mph - N/A   Clear
11:15 AM 15.8 °F 2.7 °F 5.0 °F 62% 30.18 in 10.0 mi WNW 11.5 mph - N/A   Clear
11:35 AM 17.6 °F 5.0 °F 5.0 °F 58% 30.18 in 10.0 mi WNW 11.5 mph - N/A   Clear
11:55 AM 17.6 °F 5.7 °F 6.8 °F 63% 30.17 in 10.0 mi West 10.4 mph - N/A   Clear
12:15 PM 17.6 °F 6.4 °F 6.8 °F 63% 30.18 in 10.0 mi West 9.2 mph - N/A   Clear
12:35 PM 19.4 °F 9.5 °F 6.8 °F 58% 30.18 in 10.0 mi West 8.1 mph - N/A   Clear
12:55 PM 19.4 °F 8.6 °F 8.6 °F 63% 30.18 in 10.0 mi West 9.2 mph - N/A   Clear
1:15 PM 19.4 °F 7.9 °F 8.6 °F 63% 30.18 in 10.0 mi West 10.4 mph - N/A   Clear
1:35 PM 21.2 °F 11.7 °F 8.6 °F 58% 30.18 in 10.0 mi West 8.1 mph - N/A   Clear
1:55 PM 21.2 °F 11.7 °F 8.6 °F 58% 30.18 in 10.0 mi West 8.1 mph - N/A   Clear
2:15 PM 21.2 °F 10.9 °F 8.6 °F 58% 30.17 in 10.0 mi West 9.2 mph - N/A   Clear
2:35 PM 21.2 °F 10.9 °F 8.6 °F 58% 30.17 in 10.0 mi West 9.2 mph - N/A   Clear
2:55 PM 21.2 °F 11.7 °F 8.6 °F 58% 30.18 in 10.0 mi West 8.1 mph - N/A   Clear
3:15 PM 21.2 °F 10.9 °F 8.6 °F 58% 30.18 in 10.0 mi West 9.2 mph - N/A   Clear
3:35 PM 21.2 °F 12.6 °F 8.6 °F 58% 30.18 in 10.0 mi WNW 6.9 mph - N/A   Clear
4:15 PM 19.4 °F 10.4 °F 8.6 °F 63% 30.20 in 10.0 mi West 6.9 mph - N/A   Clear
4:35 PM 19.4 °F 8.6 °F 8.6 °F 63% 30.20 in 10.0 mi West 9.2 mph - N/A   Clear
4:55 PM 17.6 °F 9.3 °F 8.6 °F 68% 30.20 in 10.0 mi West 5.8 mph - N/A   Clear
5:15 PM 17.6 °F 7.3 °F 8.6 °F 68% 30.20 in 10.0 mi West 8.1 mph - N/A   Clear
5:35 PM 17.6 °F 8.2 °F 8.6 °F 68% 30.21 in 10.0 mi West 6.9 mph - N/A   Clear
5:55 PM 17.6 °F 7.3 °F 8.6 °F 68% 30.22 in 10.0 mi West 8.1 mph - N/A   Clear
6:15 PM 15.8 °F 6.1 °F 8.6 °F 73% 30.22 in 10.0 mi West 6.9 mph - N/A   Clear
6:35 PM 15.8 °F 7.2 °F 6.8 °F 68% 30.22 in 10.0 mi West 5.8 mph - N/A   Clear
6:55 PM 14.0 °F 6.5 °F 6.8 °F 73% 30.23 in 10.0 mi West 4.6 mph - N/A   Clear
7:15 PM 14.0 °F - 6.8 °F 73% 30.23 in 10.0 mi Calm Calm - N/A   Clear
7:35 PM 14.0 °F 8.2 °F 6.8 °F 73% 30.23 in 10.0 mi West 3.5 mph - N/A   Clear
8:15 PM 14.0 °F 8.2 °F 6.8 °F 73% 30.23 in 10.0 mi West 3.5 mph - N/A   Clear
8:35 PM 14.0 °F - 6.8 °F 73% 30.23 in 10.0 mi Calm Calm - N/A   Clear
8:55 PM 10.4 °F - 5.0 °F 79% 30.22 in 10.0 mi Calm Calm - N/A   Clear
9:15 PM 8.6 °F - 3.2 °F 79% 30.22 in 10.0 mi Calm Calm - N/A   Clear
9:35 PM 8.6 °F - 5.0 °F 85% 30.21 in 10.0 mi Calm Calm - N/A   Clear
9:55 PM 10.4 °F - 5.0 °F 79% 30.21 in 10.0 mi Calm Calm - N/A   Clear
10:15 PM 10.4 °F - 5.0 °F 79% 30.20 in 10.0 mi Calm Calm - N/A   Clear
10:35 PM 8.6 °F - 5.0 °F 85% 30.20 in 10.0 mi Calm Calm - N/A   Clear
10:55 PM 8.6 °F - 3.2 °F 79% 30.20 in 10.0 mi Calm Calm - N/A   Clear
11:15 PM 6.8 °F - 3.2 °F 85% 30.20 in 10.0 mi Calm Calm - N/A   Clear
11:35 PM 6.8 °F - 3.2 °F 85% 30.19 in 10.0 mi Calm Calm - N/A   Clear
11:55 PM 8.6 °F - 5.0 °F 85% 30.20 in 10.0 mi Calm Calm - N/A   Clear